Regional Weather Roundup
Issued by NWS Sioux Falls, SD

Home | Current Version | Previous Version | Graphics & Text | Print | Product List | Glossary Off
Versions: 1 2 3 4 5 6 7 8 9 10 11 12 13 14 15 16 17 18 19 20 21 22 23 24 25 26 27 28 29 30 31 32 33 34 35 36 37 38 39 40 41 42 43 44 45 46 47 48 49 50

000
ASUS43 KFSD 240302
RWRFSD

WEATHER ROUNDUP FOR SE SOUTH DAKOTA/SW MINNESOTA/NW IOWA
NATIONAL WEATHER SERVICE SIOUX FALLS SD
900 PM CST TUE JAN 23 2018

NOTE: "FAIR" INDICATES FEW OR NO CLOUDS BELOW 12,000 FEET WITH NO
SIGNIFICANT WEATHER AND OR OBSTRUCTIONS TO VISIBILITY.


SDZ038>040-050-052>070-240400-
SOUTHEAST SOUTH DAKOTA

CITY           SKY/WX    TMP DP  RH WIND       PRES   REMARKS
BROOKINGS      CLOUDY    22  21  96 NW6       30.15R FOG     WCI  14
CHAMBERLAIN    CLEAR     31  26  81 W7        30.19R WCI  24
HURON          PTCLDY    19  17  92 CALM      30.17R FOG
MADISON        FOG       19  19 100 CALM      30.14S VSB 1/4
MITCHELL       PTCLDY    24  22  91 W7        30.18R WCI  16
SIOUX FALLS    CLOUDY    24  23  96 NW6       30.16S WCI  17
WINNER         FAIR      30  23  75 W14       30.20R WCI  19
YANKTON        PTCLDY    20  18  92 CALM      30.18R FOG
$$

MNZ071-072-080-081-089-090-097-098-240400-
SOUTHWEST MINNESOTA

CITY           SKY/WX    TMP DP  RH WIND       PRES   REMARKS
FAIRMONT       CLOUDY    20  17  88 W9        30.18  WCI   9
JACKSON        CLOUDY    23  21  93 W3        30.15F
LUVERNE        CLOUDY    25  21  86 NW6       30.16F WCI  18
MARSHALL       CLOUDY    25  22  88 W8        30.17R WCI  16
MONTEVIDEO     CLOUDY    27  19  74 NW7       30.17S WCI  19
PIPESTONE      CLOUDY    23  21  93 NW7       30.14R WCI  15
REDWOOD FALLS  CLOUDY    24  19  81 W3        30.16S
TRACY          CLOUDY    25  23  93 NW9       30.15S WCI  15
WINDOM         CLOUDY    23  10  58 W8        30.15S WCI  14
WORTHINGTON    CLOUDY    22  20  92 W8        30.15S WCI  12
$$

IAZ001>003-012>014-020>022-031-032-NEZ013-014-SDZ071-240400-
NORTHWEST IOWA

CITY           SKY/WX    TMP DP  RH WIND       PRES   REMARKS
CHEROKEE       CLOUDY    22  22  98 NW5       30.18F WCI  16
DENISON        CLOUDY    23  23 100 SW6       30.20F WCI  16
ESTHERVILLE    CLOUDY    22  20  92 W7        30.17R WCI  13
LE MARS        CLOUDY    23  23 100 CALM      30.19S
ORANGE CITY    CLOUDY    23  23 100 CALM      30.17S
SHELDON        CLOUDY    23  23 100 NW5       30.15F WCI  17
SIOUX CITY     CLOUDY    21  20  96 SE3       30.20R
SPENCER        MIX PCPN  23  20  88 W9        30.17S WCI  13
STORM LAKE     CLOUDY    21  21 100 W10       30.16S FOG     WCI  10
$$

ABBREVIATIONS USED IN REMARKS
   TC - TEMPERATURE IN CELSIUS
  WCI - WIND CHILL INDEX
   HX - HEAT INDEX
  VSB - VISIBILITY





USA.gov is the U.S. government's official web portal to all federal, state and local government web resources and services.